Weather History for LGKL - December, 2012

Change the Weather History Date:

Tuesday, December 18, 2012

  Actual Average Record
Temperature  
Mean Temperature 55 °F -  
Max Temperature 60 °F 60 °F 66 °F (1999)
Min Temperature 48 °F 43 °F 30 °F (2001)
Degree Days  
Heating Degree Days 10    
Growing Degree Days 5 (Base 50)    
Moisture  
Dew Point 51 °F    
Average Humidity 86    
Maximum Humidity 94    
Minimum Humidity 68    
Precipitation  
Precipitation 0.00 in 0.17 in - ()
Sea Level Pressure  
Sea Level Pressure 29.70 in    
Wind  
Wind Speed 1 mph ()    
Max Wind Speed 15 mph    
Max Gust Speed -    
Visibility 5.3 miles    
Events Rain , Thunderstorm    
Averages and records for this station are not official NWS values.
T = Trace of Precipitation, MM = Missing Value Source: Averaged Metar Reports

Daily Weather History Graph

Daily Weather History Graph

Search for Another Location

Airport or City:

Trip Planner

Search our weather history database for the weather conditions in past years. The results will help you decide how hot, cold, wet, or windy it might be!

Date:

Astronomy

Dec. 18, 2012 Rise Set
Actual Time 7:40 AM EET 5:17 PM EET
Civil Twilight 7:11 AM EET 5:46 PM EET
Nautical Twilight 6:38 AM EET 6:18 PM EET
Astronomical Twilight 6:06 AM EET 6:50 PM EET
Moon 11:17 AM EET (12/18) 11:15 PM EET (12/18)
Length of Visible Light 10h 35m
Length of Day
9h 37m
Waxing Crescent, 31% of the Moon is Illuminated
Dec 18
Waxing Crescent
Dec 20
First Quarter
Dec 28
Full
Jan 5
Last Quarter
Jan 11
New

Hourly Weather History & Observations

Time (EET) Temp. Dew Point Humidity Pressure Visibility Wind Dir Wind Speed Gust Speed Precip Events Conditions
4:50 AM 57.2 °F 53.6 °F 88% 29.74 in 6.2 mi Calm Calm - N/A   Mostly Cloudy
5:20 AM 55.4 °F 53.6 °F 94% 29.71 in 6.2 mi Calm Calm - N/A   Mostly Cloudy
5:50 AM 55.4 °F 53.6 °F 94% 29.71 in 6.2 mi Calm Calm - N/A   Scattered Clouds
6:20 AM 55.4 °F 53.6 °F 94% 29.71 in 6.2 mi Calm Calm - N/A   Scattered Clouds
6:50 AM 53.6 °F 51.8 °F 94% 29.71 in 6.2 mi Calm Calm - N/A   Scattered Clouds
7:20 AM 53.6 °F 51.8 °F 94% 29.71 in 5.0 mi Calm Calm - N/A   Scattered Clouds
7:50 AM 53.6 °F 51.8 °F 94% 29.71 in 4.3 mi Calm Calm - N/A   Scattered Clouds
8:20 AM 53.6 °F 51.8 °F 94% 29.71 in 3.7 mi Calm Calm - N/A   Mostly Cloudy
9:20 AM 57.2 °F 53.6 °F 88% 29.71 in 3.7 mi Calm Calm - N/A Rain Light Rain
9:50 AM 57.2 °F 53.6 °F 88% 29.71 in 3.1 mi Calm Calm - N/A Rain Light Rain
10:20 AM 57.2 °F 53.6 °F 88% 29.74 in 5.0 mi Calm Calm - N/A   Scattered Clouds
10:50 AM 59.0 °F 51.8 °F 77% 29.74 in 5.0 mi NNE 8.1 mph - N/A   Scattered Clouds
11:20 AM 59.0 °F 51.8 °F 77% 29.71 in 4.3 mi NNE 4.6 mph - N/A Rain Light Rain
11:50 AM 59.0 °F 53.6 °F 82% 29.71 in 5.0 mi Calm Calm - N/A   Scattered Clouds
12:20 PM 60.8 °F 50.0 °F 68% 29.71 in 3.1 mi NW 4.6 mph - N/A Rain Light Rain
12:50 PM 60.8 °F 50.0 °F 68% 29.71 in 5.0 mi North 4.6 mph - N/A   Scattered Clouds
1:20 PM 59.0 °F 51.8 °F 77% 29.68 in 5.0 mi Calm Calm - N/A   Scattered Clouds
1:50 PM 60.8 °F 51.8 °F 72% 29.68 in 5.0 mi Calm Calm - N/A   Scattered Clouds
2:50 PM 59.0 °F 51.8 °F 77% 29.65 in 5.0 mi South 4.6 mph - N/A Rain , Thunderstorm Light Thunderstorms and Rain
3:20 PM 55.4 °F 50.0 °F 82% 29.68 in 5.0 mi NW 15.0 mph - N/A Thunderstorm Thunderstorm
3:50 PM 55.4 °F 48.2 °F 77% 29.68 in 6.2 mi North 4.6 mph - N/A   Mostly Cloudy
4:20 PM 53.6 °F 48.2 °F 82% 29.68 in 5.0 mi North 4.6 mph - N/A Rain Rain
4:50 PM 53.6 °F 48.2 °F 82% 29.68 in 5.0 mi NNW 4.6 mph - N/A Rain Light Rain
5:20 PM 51.8 °F 50.0 °F 94% 29.68 in 6.2 mi Calm Calm - N/A   Mostly Cloudy
5:50 PM 51.8 °F 48.2 °F 88% 29.68 in 6.2 mi Calm Calm - N/A   Mostly Cloudy
6:20 PM 50.0 °F 48.2 °F 94% 29.68 in 6.2 mi Calm Calm - N/A   Mostly Cloudy
6:50 PM 50.0 °F 48.2 °F 94% 29.68 in 6.2 mi Calm Calm - N/A   Mostly Cloudy
7:20 PM 50.0 °F 48.2 °F 94% 29.71 in 6.2 mi Calm Calm - N/A   Mostly Cloudy
7:50 PM 50.0 °F 48.2 °F 94% 29.71 in 6.2 mi Calm Calm - N/A   Scattered Clouds
10:50 PM 48.2 °F 44.6 °F 87% 29.74 in 6.2 mi Calm Calm - N/A Rain Light Rain